Regional Weather Roundup
Issued by NWS

Home | Current Version | Previous Version | Graphics & Text | Print | Product List | Glossary On
Versions: 1 2 3 4 5 6 7 8 9 10 11 12 13 14 15 16 17 18 19 20 21 22 23 24 25 26 27 28 29 30 31 32 33 34 35 36 37 38 39 40 41 42 43 44 45 46 47 48 49 50
527
ASUS45 KCYS 250110
RWRWY

WYOMING REGIONAL WEATHER ROUNDUP
NATIONAL WEATHER SERVICE CHEYENNE WY
700 PM MDT TUE MAY 24 2016

NOTE:  "FAIR" INDICATES FEW OR NO CLOUDS BELOW 12,000 FEET
WITH NO SIGNIFICANT WEATHER AND/OR OBSTRUCTIONS TO VISIBILITY.

WYZ001-250200-
YELLOWSTONE NATIONAL PARK

CITY           SKY/WX    TMP DP  RH WIND       PRES   REMARKS
LK YELLOWSTONE   N/A     37  34  89 CALM      29.99S
W YELLOWSTONE  NOT AVBL

$$
WYZ002>013-054>058-071-098>099-250200-
NORTHERN WYOMING

CITY           SKY/WX    TMP DP  RH WIND       PRES   REMARKS
JACKSON        CLOUDY    43  39  87 SW5       29.95R
CODY           CLOUDY    50  45  81 N8        29.89S
GREYBULL       CLOUDY    61  40  45 NW25G33   29.81R
WORLAND        RAIN      51  46  83 SW17      29.88
SHERIDAN       FAIR      61  44  53 W13       29.80R
BUFFALO        FAIR      61  39  44 CALM      29.83F
GILLETTE       FAIR      57  51  80 N7        29.83R
HULETT         RAIN      52  48  87 E9        29.86S
NEWCASTLE      FAIR      59  43  55 E20G28    29.82F

$$
WYZ014>020-022>026-101>103-250200-
CENTRAL WYOMING

CITY           SKY/WX    TMP DP  RH WIND       PRES   REMARKS
BIG PINEY      PTSUNNY   44  38  79 N3        29.98S
PINEDALE       RAIN      43  36  75 NW6       30.00R
DUBOIS         CLOUDY    45  34  65 N13G18    29.94R
LANDER         FAIR      54  42  64 N7        29.85R
RIVERTON       PTSUNNY   55  39  54 NW18G25   29.87R
CASPER         FAIR      63  32  31 W26G44    29.80R
DOUGLAS        FAIR      64  46  52 E10       29.79S

$$
WYZ021-027>030-104>119-250200-
SOUTHERN WYOMING

CITY           SKY/WX    TMP DP  RH WIND       PRES   REMARKS
EVANSTON       CLOUDY    45  34  65 SW26G37   29.98R
KEMMERER         N/A     46  36  66 NW14G21   29.96S
FORT BRIDGER   CLOUDY    45  37  76 W17       30.00S
ROCK SPRINGS   FAIR      54  29  38 W14       29.91S
DIXON          FAIR      61  26  26 SW13      29.90S
RAWLINS        FAIR      55  33  43 W23G35    29.89R
SARATOGA       FAIR      59  25  27 SW15G21   29.90S
LARAMIE        PTSUNNY   56  41  57 SE32G40   29.87R
CHEYENNE       FAIR      56  43  61 SE16      29.87F
TORRINGTON     FAIR      65  42  43 S16       29.79R
PINE BLUFFS    FAIR      55  48  76 E12       29.85F

$$




USA.gov is the U.S. government's official web portal to all federal, state and local government web resources and services.